QPF
0.01 0.01 0.01 0.02 0.02 0.02 0.04 0.04 0.04 0.05 0.04 0.04 0.04 0.03 0.02 0.02 0.03 0.04 0.04 0.04 0.04 0.04 0.03 0.02 0.02 0.02 0.02 0.03 0.03 0.03 0.03 0.03 0.03 0.03 0.02 0.03 0.03 0.04 0.03 0.03 0.02 0.02 0.02
0.01 0.01 0.02 0.02 0.02 0.02 0.03 0.05 0.06 0.06 0.05 0.04 0.05 0.04 0.02 0.03 0.03 0.04 0.04 0.05 0.05 0.04 0.04 0.03 0.02 0.02 0.02 0.02 0.03 0.03 0.05 0.04 0.04 0.04 0.03 0.03 0.04 0.04 0.04 0.04 0.02 0.02 0.02
0.01 0.01 0.02 0.02 0.02 0.02 0.03 0.05 0.07 0.06 0.05 0.04 0.04 0.04 0.03 0.03 0.05 0.05 0.04 0.05 0.04 0.04 0.04 0.04 0.03 0.03 0.03 0.03 0.03 0.04 0.05 0.04 0.04 0.04 0.04 0.04 0.03 0.03 0.04 0.04 0.03 0.03 0.02
0.01 0.01 0.02 0.02 0.01 0.01 0.02 0.04 0.04 0.03 0.02 0.02 0.03 0.03 0.03 0.04 0.03 0.03 0.03 0.04 0.04 0.04 0.04 0.04 0.04 0.04 0.03 0.03 0.03 0.04 0.04 0.04 0.03 0.03 0.03 0.03 0.03 0.02 0.04 0.04 0.03 0.03 0.02
0.02 0.02 0.03 0.03 0.02 0.02 0.02 0.03 0.02 0.02 0.02 0.02 0.02 0.02 0.03 0.03 0.02 0.02 0.03 0.03 0.03 0.04 0.03 0.03 0.02 0.02 0.03 0.03 0.03 0.03 0.03 0.03 0.02 0.02 0.02 0.03 0.03 0.03 0.03 0.02 0.02 0.02 0.02
0.03 0.03 0.03 0.03 0.03 0.03 0.03 0.03 0.03 0.02 0.02 0.02 0.02 0.02 0.02 0.01 0.02 0.03 0.03 0.03 0.03 0.04 0.03 0.03 0.03 0.02 0.02 0.03 0.03 0.03 0.03 0.03 0.03 0.03 0.03 0.03 0.03 0.03 0.03 0.02 0.01 0.01 0.01
0.03 0.03 0.02 0.02 0.02 0.02 0.02 0.02 0.02 0.02 0.02 0.02 0.01 0.02 0.02 0.02 0.02 0.03 0.04 0.04 0.04 0.04 0.04 0.04 0.05 0.04 0.04 0.04 0.03 0.02 0.02 0.01 0.02 0.03 0.04 0.04 0.04 0.04 0.03 0.03 0.03 0.02 0.02
0.03 0.02 0.02 0.02 0.02 0.02 0.01 0.01 0.01 0.02 0.02 0.02 0.01 0.01 0.02 0.02 0.02 0.02 0.04 0.05 0.05 0.05 0.05 0.05 0.05 0.05 0.04 0.05 0.04 0.03 0.02 0.01 0.01 0.02 0.02 0.03 0.03 0.04 0.04 0.03 0.03 0.02 0.02
0.01 0.02 0.01 0.01 0.02 0.02 0.01 0.01 0.01 0.02 0.02 0.02 0.02 0.02 0.02 0.02 0.02 0.02 0.04 0.03 0.03 0.03 0.04 0.05 0.05 0.05 0.05 0.05 0.04 0.04 0.04 0.03 0.02 0.02 0.02 0.02 0.02 0.02 0.03 0.03 0.03 0.02 0.01
0.01 0.01 0.01 0.01 0.01 0.01 0.01 0.01 0.01 0.01 0.02 0.03 0.03 0.04 0.04 0.03 0.03 0.03 0.04 0.03 0.03 0.03 0.03 0.03 0.04 0.04 0.04 0.04 0.03 0.03 0.04 0.04 0.03 0.03 0.03 0.03 0.02 0.02 0.02 0.03 0.04 0.03 0.02
0.01 0.01 0.01 0.01 0.01 0.01 0.01 0.01 0.01 0.01 0.02 0.04 0.04 0.05 0.06 0.06 0.05 0.05 0.04 0.03 0.02 0.03 0.03 0.03 0.03 0.03 0.03 0.04 0.03 0.03 0.05 0.05 0.05 0.05 0.06 0.05 0.04 0.03 0.02 0.02 0.02 0.02 0.02
0.03 0.02 0.01 0.02 0.02 0.02 0.03 0.03 0.03 0.03 0.02 0.03 0.03 0.05 0.05 0.06 0.08 0.07 0.05 0.04 0.03 0.03 0.03 0.04 0.04 0.03 0.03 0.03 0.03 0.04 0.05 0.05 0.05 0.05 0.05 0.04 0.04 0.03 0.03 0.02 0.02 0.01 0.02
0.04 0.04 0.04 0.04 0.04 0.04 0.04 0.04 0.03 0.03 0.02 0.02 0.03 0.04 0.05 0.05 0.06 0.07 0.07 0.06 0.06 0.05 0.05 0.04 0.03 0.02 0.02 0.02 0.02 0.02 0.03 0.03 0.04 0.04 0.04 0.03 0.03 0.03 0.03 0.03 0.02 0.02 0.02
0.05 0.05 0.05 0.05 0.06 0.07 0.06 0.06 0.05 0.04 0.05 0.05 0.05 0.05 0.05 0.04 0.03 0.03 0.04 0.04 0.03 0.03 0.03 0.02 0.02 0.02 0.01 0.01 0.01 0.01 0.01 0.02 0.03 0.02 0.02 0.02 0.02 0.03 0.03 0.03 0.03 0.02 0.02
0.06 0.06 0.06 0.06 0.07 0.07 0.06 0.06 0.06 0.06 0.07 0.08 0.08 0.08 0.07 0.05 0.03 0.02 0.03 0.03 0.02 0.02 0.02 0.03 0.02 0.02 0.02 0.01 0.02 0.02 0.02 0.02 0.02 0.02 0.02 0.02 0.03 0.03 0.03 0.02 0.02 0.02 0.03
0.04 0.05 0.05 0.05 0.05 0.05 0.05 0.05 0.05 0.04 0.04 0.04 0.05 0.06 0.05 0.05 0.03 0.03 0.03 0.03 0.04 0.04 0.04 0.02 0.02 0.02 0.02 0.02 0.03 0.03 0.03 0.03 0.03 0.04 0.04 0.03 0.03 0.02 0.02 0.02 0.02 0.03 0.03
0.03 0.04 0.06 0.07 0.07 0.06 0.05 0.04 0.05 0.05 0.04 0.04 0.04 0.04 0.04 0.04 0.05 0.04 0.04 0.04 0.05 0.06 0.04 0.03 0.02 0.02 0.02 0.03 0.03 0.04 0.04 0.04 0.04 0.03 0.03 0.02 0.02 0.02 0.03 0.04 0.04 0.04 0.04
0.04 0.04 0.04 0.04 0.05 0.05 0.05 0.06 0.06 0.06 0.05 0.04 0.03 0.03 0.03 0.03 0.04 0.05 0.05 0.04 0.04 0.04 0.03 0.03 0.03 0.03 0.02 0.03 0.03 0.03 0.03 0.03 0.03 0.03 0.03 0.03 0.04 0.05 0.05 0.05 0.05 0.03 0.03
0.04 0.04 0.04 0.04 0.04 0.04 0.04 0.04 0.04 0.04 0.03 0.03 0.04 0.05 0.04 0.03 0.03 0.04 0.05 0.04 0.03 0.04 0.04 0.03 0.03 0.03 0.03 0.02 0.02 0.02 0.02 0.03 0.03 0.04 0.05 0.05 0.05 0.05 0.04 0.04 0.03 0.02 0.02
0.04 0.06 0.06 0.06 0.05 0.05 0.05 0.04 0.05 0.05 0.04 0.04 0.04 0.06 0.06 0.06 0.05 0.05 0.05 0.04 0.04 0.04 0.04 0.04 0.03 0.03 0.03 0.02 0.02 0.03 0.03 0.03 0.03 0.04 0.05 0.05 0.04 0.04 0.03 0.03 0.03 0.02 0.02
0.05 0.06 0.06 0.06 0.06 0.05 0.04 0.04 0.05 0.06 0.05 0.05 0.04 0.04 0.05 0.05 0.05 0.06 0.07 0.06 0.06 0.05 0.05 0.04 0.04 0.04 0.04 0.03 0.03 0.03 0.03 0.03 0.03 0.04 0.04 0.03 0.03 0.04 0.03 0.02 0.02 0.01 0.01
0.04 0.07 0.06 0.05 0.04 0.03 0.02 0.02 0.03 0.03 0.04 0.06 0.06 0.04 0.03 0.04 0.04 0.04 0.05 0.05 0.06 0.06 0.06 0.05 0.05 0.05 0.05 0.05 0.04 0.04 0.04 0.03 0.04 0.04 0.03 0.02 0.03 0.03 0.03 0.02 0.02 0.02 0.02
0.02 0.03 0.04 0.04 0.03 0.02 0.02 0.04 0.05 0.05 0.04 0.06 0.07 0.06 0.06 0.06 0.06 0.06 0.05 0.05 0.06 0.06 0.06 0.05 0.03 0.03 0.04 0.04 0.04 0.04 0.05 0.05 0.05 0.04 0.03 0.03 0.03 0.02 0.02 0.02 0.02 0.01 0.01
0.01 0.02 0.03 0.03 0.03 0.03 0.04 0.07 0.09 0.07 0.04 0.05 0.05 0.04 0.06 0.07 0.07 0.07 0.07 0.07 0.06 0.05 0.04 0.04 0.04 0.04 0.04 0.04 0.04 0.04 0.04 0.04 0.04 0.04 0.03 0.04 0.04 0.04 0.03 0.02 0.02 0.01 0.01
0.02 0.02 0.03 0.04 0.05 0.05 0.05 0.05 0.06 0.07 0.04 0.04 0.05 0.05 0.06 0.07 0.07 0.07 0.09 0.09 0.08 0.06 0.05 0.05 0.05 0.06 0.07 0.07 0.07 0.06 0.05 0.05 0.04 0.03 0.03 0.04 0.04 0.04 0.03 0.03 0.02 0.02 0.01
0.02 0.03 0.04 0.04 0.05 0.05 0.05 0.04 0.04 0.05 0.05 0.04 0.04 0.05 0.06 0.08 0.08 0.08 0.07 0.09 0.09 0.08 0.06 0.04 0.04 0.05 0.06 0.07 0.09 0.09 0.09 0.07 0.06 0.06 0.04 0.05 0.05 0.05 0.04 0.04 0.03 0.03 0.02
MSLP
1006.66 1006.94 1007.18 1007.35 1007.42 1007.36 1007.20 1006.94 1006.63 1006.31 1006.01 1005.76 1005.60 1005.51 1005.51 1005.57 1005.67 1005.81 1005.98 1006.16 1006.35 1006.57 1006.81 1007.08 1007.39 1007.73 1008.10 1008.48 1008.84 1009.19 1009.50 1009.76 1009.97 1010.13 1010.26 1010.37 1010.50 1010.66 1010.88 1011.16 1011.52 1011.95 1012.43
1006.74 1006.96 1007.16 1007.28 1007.31 1007.23 1007.04 1006.76 1006.41 1006.03 1005.66 1005.34 1005.09 1004.93 1004.84 1004.84 1004.89 1004.99 1005.12 1005.27 1005.44 1005.63 1005.86 1006.12 1006.43 1006.78 1007.17 1007.59 1008.03 1008.46 1008.87 1009.24 1009.55 1009.82 1010.03 1010.21 1010.37 1010.55 1010.75 1011.01 1011.32 1011.70 1012.14
1006.97 1007.14 1007.28 1007.36 1007.35 1007.23 1007.00 1006.67 1006.26 1005.82 1005.37 1004.96 1004.62 1004.35 1004.18 1004.08 1004.06 1004.10 1004.19 1004.31 1004.47 1004.65 1004.88 1005.14 1005.46 1005.84 1006.26 1006.72 1007.22 1007.72 1008.21 1008.67 1009.08 1009.43 1009.73 1009.97 1010.19 1010.39 1010.60 1010.85 1011.13 1011.48 1011.88
1007.30 1007.43 1007.52 1007.55 1007.48 1007.31 1007.02 1006.63 1006.16 1005.64 1005.10 1004.59 1004.14 1003.76 1003.48 1003.28 1003.17 1003.14 1003.17 1003.27 1003.41 1003.60 1003.84 1004.14 1004.49 1004.90 1005.36 1005.87 1006.42 1006.98 1007.53 1008.06 1008.54 1008.97 1009.34 1009.65 1009.92 1010.17 1010.41 1010.66 1010.94 1011.27 1011.65
1007.67 1007.77 1007.81 1007.79 1007.66 1007.42 1007.07 1006.61 1006.07 1005.47 1004.84 1004.23 1003.66 1003.16 1002.75 1002.44 1002.23 1002.12 1002.10 1002.16 1002.29 1002.50 1002.77 1003.11 1003.52 1003.98 1004.50 1005.06 1005.65 1006.25 1006.85 1007.43 1007.96 1008.45 1008.88 1009.25 1009.58 1009.88 1010.16 1010.45 1010.75 1011.08 1011.46
1008.04 1008.10 1008.10 1008.01 1007.83 1007.53 1007.12 1006.60 1005.99 1005.32 1004.61 1003.90 1003.23 1002.61 1002.08 1001.65 1001.33 1001.13 1001.04 1001.07 1001.20 1001.43 1001.74 1002.14 1002.61 1003.14 1003.72 1004.34 1004.97 1005.61 1006.24 1006.84 1007.41 1007.93 1008.41 1008.83 1009.22 1009.57 1009.90 1010.23 1010.57 1010.93 1011.32
1008.34 1008.38 1008.34 1008.20 1007.96 1007.62 1007.16 1006.60 1005.95 1005.23 1004.47 1003.69 1002.93 1002.21 1001.57 1001.03 1000.60 1000.31 1000.15 1000.14 1000.26 1000.51 1000.88 1001.34 1001.88 1002.48 1003.13 1003.80 1004.47 1005.14 1005.79 1006.40 1006.98 1007.52 1008.01 1008.47 1008.90 1009.30 1009.69 1010.06 1010.44 1010.83 1011.25
1008.57 1008.59 1008.51 1008.34 1008.07 1007.70 1007.23 1006.66 1006.00 1005.28 1004.50 1003.69 1002.87 1002.09 1001.37 1000.73 1000.22 999.84 999.62 999.56 999.67 999.93 1000.33 1000.85 1001.46 1002.13 1002.84 1003.55 1004.26 1004.95 1005.60 1006.21 1006.78 1007.31 1007.82 1008.29 1008.74 1009.18 1009.60 1010.01 1010.42 1010.84 1011.26
1008.74 1008.73 1008.63 1008.44 1008.17 1007.80 1007.35 1006.82 1006.21 1005.52 1004.78 1003.99 1003.17 1002.37 1001.60 1000.91 1000.32 999.87 999.59 999.49 999.57 999.83 1000.26 1000.81 1001.47 1002.19 1002.95 1003.70 1004.43 1005.12 1005.76 1006.35 1006.90 1007.41 1007.90 1008.36 1008.82 1009.26 1009.70 1010.13 1010.56 1010.98 1011.40
1008.86 1008.84 1008.73 1008.55 1008.29 1007.97 1007.58 1007.13 1006.60 1006.01 1005.36 1004.64 1003.88 1003.10 1002.33 1001.62 1000.99 1000.49 1000.16 1000.01 1000.06 1000.31 1000.73 1001.30 1001.98 1002.73 1003.51 1004.28 1005.01 1005.69 1006.31 1006.87 1007.38 1007.85 1008.30 1008.74 1009.17 1009.60 1010.03 1010.45 1010.86 1011.26 1011.65
1008.97 1008.94 1008.83 1008.68 1008.47 1008.22 1007.93 1007.60 1007.21 1006.75 1006.23 1005.63 1004.97 1004.27 1003.54 1002.85 1002.21 1001.69 1001.32 1001.13 1001.15 1001.36 1001.76 1002.32 1002.99 1003.73 1004.51 1005.26 1005.98 1006.63 1007.20 1007.72 1008.18 1008.60 1009.00 1009.39 1009.78 1010.17 1010.57 1010.95 1011.33 1011.69 1012.03
1009.09 1009.06 1008.98 1008.86 1008.72 1008.57 1008.40 1008.20 1007.97 1007.68 1007.32 1006.88 1006.35 1005.76 1005.12 1004.48 1003.87 1003.35 1002.96 1002.74 1002.72 1002.89 1003.25 1003.76 1004.39 1005.10 1005.84 1006.56 1007.22 1007.83 1008.35 1008.81 1009.21 1009.57 1009.90 1010.24 1010.57 1010.91 1011.26 1011.59 1011.92 1012.22 1012.50
1009.24 1009.22 1009.17 1009.10 1009.04 1008.99 1008.94 1008.89 1008.82 1008.70 1008.51 1008.23 1007.86 1007.40 1006.87 1006.31 1005.76 1005.27 1004.89 1004.65 1004.59 1004.71 1005.01 1005.46 1006.03 1006.67 1007.34 1008.00 1008.60 1009.14 1009.60 1009.99 1010.32 1010.61 1010.89 1011.16 1011.44 1011.72 1012.01 1012.30 1012.57 1012.81 1013.03
1009.44 1009.43 1009.41 1009.40 1009.42 1009.46 1009.52 1009.60 1009.66 1009.69 1009.66 1009.54 1009.32 1009.00 1008.60 1008.14 1007.67 1007.23 1006.87 1006.62 1006.54 1006.61 1006.85 1007.22 1007.71 1008.26 1008.85 1009.42 1009.94 1010.40 1010.79 1011.11 1011.38 1011.61 1011.83 1012.04 1012.27 1012.50 1012.74 1012.98 1013.20 1013.41 1013.58
1009.68 1009.70 1009.71 1009.75 1009.82 1009.93 1010.07 1010.24 1010.41 1010.56 1010.65 1010.66 1010.57 1010.38 1010.10 1009.75 1009.37 1009.00 1008.68 1008.45 1008.35 1008.38 1008.56 1008.86 1009.25 1009.71 1010.20 1010.67 1011.10 1011.48 1011.80 1012.05 1012.26 1012.45 1012.62 1012.79 1012.97 1013.17 1013.38 1013.59 1013.79 1013.97 1014.12
1009.96 1010.00 1010.05 1010.11 1010.22 1010.37 1010.56 1010.78 1011.01 1011.22 1011.39 1011.50 1011.51 1011.43 1011.26 1011.02 1010.73 1010.44 1010.17 1009.98 1009.87 1009.88 1010.01 1010.23 1010.55 1010.91 1011.30 1011.68 1012.03 1012.33 1012.57 1012.78 1012.94 1013.09 1013.22 1013.37 1013.54 1013.72 1013.91 1014.11 1014.30 1014.47 1014.62
1010.26 1010.33 1010.40 1010.49 1010.61 1010.77 1010.97 1011.20 1011.45 1011.69 1011.90 1012.05 1012.14 1012.14 1012.06 1011.91 1011.72 1011.51 1011.31 1011.15 1011.07 1011.07 1011.16 1011.33 1011.57 1011.85 1012.16 1012.45 1012.73 1012.96 1013.16 1013.32 1013.45 1013.57 1013.69 1013.83 1013.99 1014.16 1014.36 1014.56 1014.75 1014.94 1015.09
1010.56 1010.66 1010.75 1010.85 1010.97 1011.12 1011.31 1011.52 1011.75 1011.99 1012.21 1012.38 1012.51 1012.57 1012.56 1012.50 1012.39 1012.26 1012.13 1012.03 1011.97 1011.98 1012.05 1012.19 1012.37 1012.60 1012.83 1013.07 1013.28 1013.47 1013.63 1013.76 1013.88 1013.99 1014.11 1014.24 1014.40 1014.58 1014.78 1014.98 1015.19 1015.38 1015.55
1010.83 1010.96 1011.07 1011.18 1011.29 1011.43 1011.59 1011.77 1011.98 1012.19 1012.39 1012.57 1012.72 1012.82 1012.87 1012.88 1012.85 1012.79 1012.73 1012.69 1012.67 1012.70 1012.78 1012.90 1013.05 1013.24 1013.43 1013.62 1013.80 1013.96 1014.09 1014.21 1014.32 1014.43 1014.55 1014.69 1014.85 1015.03 1015.23 1015.43 1015.63 1015.82 1015.99
1011.03 1011.19 1011.32 1011.44 1011.55 1011.68 1011.82 1011.97 1012.15 1012.34 1012.53 1012.71 1012.88 1013.01 1013.11 1013.17 1013.20 1013.22 1013.23 1013.24 1013.27 1013.33 1013.42 1013.54 1013.69 1013.86 1014.03 1014.20 1014.36 1014.51 1014.64 1014.76 1014.87 1014.98 1015.10 1015.23 1015.39 1015.55 1015.73 1015.92 1016.10 1016.26 1016.40
1011.11 1011.30 1011.46 1011.60 1011.72 1011.85 1011.98 1012.13 1012.30 1012.48 1012.67 1012.86 1013.04 1013.20 1013.34 1013.45 1013.54 1013.62 1013.69 1013.75 1013.83 1013.93 1014.04 1014.18 1014.34 1014.51 1014.68 1014.85 1015.02 1015.16 1015.30 1015.42 1015.53 1015.64 1015.75 1015.87 1016.00 1016.14 1016.28 1016.43 1016.56 1016.68 1016.77
1011.06 1011.28 1011.46 1011.62 1011.77 1011.92 1012.07 1012.24 1012.42 1012.61 1012.81 1013.02 1013.22 1013.41 1013.59 1013.74 1013.88 1014.01 1014.12 1014.24 1014.36 1014.49 1014.64 1014.80 1014.98 1015.17 1015.36 1015.55 1015.72 1015.88 1016.03 1016.15 1016.26 1016.36 1016.46 1016.55 1016.64 1016.73 1016.82 1016.90 1016.97 1017.03 1017.05
1010.85 1011.09 1011.31 1011.50 1011.68 1011.87 1012.05 1012.25 1012.47 1012.69 1012.92 1013.16 1013.39 1013.61 1013.82 1014.01 1014.19 1014.35 1014.50 1014.65 1014.81 1014.97 1015.15 1015.35 1015.56 1015.78 1016.00 1016.21 1016.41 1016.59 1016.74 1016.87 1016.97 1017.05 1017.12 1017.17 1017.20 1017.24 1017.26 1017.26 1017.26 1017.23 1017.17
1010.51 1010.77 1011.01 1011.24 1011.46 1011.69 1011.92 1012.17 1012.42 1012.69 1012.96 1013.23 1013.49 1013.74 1013.97 1014.19 1014.39 1014.57 1014.75 1014.92 1015.11 1015.31 1015.52 1015.75 1016.00 1016.25 1016.50 1016.75 1016.97 1017.17 1017.33 1017.46 1017.55 1017.60 1017.63 1017.63 1017.61 1017.56 1017.51 1017.44 1017.35 1017.24 1017.10
1010.10 1010.36 1010.62 1010.87 1011.13 1011.39 1011.67 1011.97 1012.27 1012.57 1012.88 1013.18 1013.47 1013.74 1013.99 1014.21 1014.42 1014.62 1014.81 1015.01 1015.21 1015.44 1015.69 1015.95 1016.23 1016.53 1016.82 1017.09 1017.34 1017.56 1017.73 1017.85 1017.92 1017.94 1017.92 1017.86 1017.77 1017.66 1017.52 1017.37 1017.21 1017.02 1016.82
1009.68 1009.93 1010.19 1010.45 1010.74 1011.03 1011.35 1011.67 1012.01 1012.35 1012.68 1013.00 1013.30 1013.58 1013.83 1014.06 1014.27 1014.47 1014.67 1014.88 1015.11 1015.36 1015.64 1015.94 1016.26 1016.59 1016.92 1017.23 1017.50 1017.73 1017.90 1018.01 1018.06 1018.04 1017.97 1017.85 1017.69 1017.51 1017.30 1017.07 1016.84 1016.59 1016.33
Thickness
5781 5779 5776 5773 5771 5769 5766 5764 5762 5760 5758 5756 5754 5753 5752 5750 5749 5747 5746 5744 5741 5739 5738 5736 5734 5733 5734 5733 5731 5729 5727 5724 5719 5721 5722 5721 5717 5717 5716 5715 5716 5715 5714
5779 5776 5773 5770 5768 5765 5763 5761 5758 5756 5755 5753 5751 5749 5748 5746 5745 5743 5741 5740 5738 5736 5734 5732 5731 5731 5728 5728 5726 5725 5723 5721 5718 5715 5716 5716 5714 5714 5713 5712 5714 5714 5713
5777 5774 5770 5768 5765 5762 5760 5758 5755 5753 5751 5749 5747 5744 5743 5742 5740 5739 5737 5735 5734 5733 5731 5729 5727 5726 5724 5723 5721 5721 5720 5720 5717 5714 5713 5712 5712 5712 5709 5709 5710 5708 5710
5773 5770 5766 5764 5762 5760 5757 5754 5752 5750 5748 5746 5743 5741 5739 5738 5736 5734 5732 5730 5729 5728 5727 5725 5724 5722 5720 5719 5718 5716 5715 5714 5712 5711 5709 5709 5708 5707 5705 5704 5704 5704 5704
5767 5764 5761 5760 5758 5756 5753 5751 5748 5746 5745 5741 5738 5736 5735 5733 5732 5729 5727 5726 5724 5724 5723 5722 5721 5718 5716 5715 5715 5713 5711 5709 5708 5707 5706 5705 5704 5701 5700 5700 5699 5698 5698
5761 5759 5757 5755 5753 5750 5749 5746 5744 5741 5739 5736 5734 5732 5730 5730 5725 5721 5719 5721 5720 5719 5718 5718 5717 5714 5712 5708 5707 5706 5704 5703 5703 5701 5701 5699 5696 5696 5695 5694 5693 5692 5691
5755 5753 5752 5750 5747 5746 5744 5741 5739 5736 5734 5731 5729 5727 5725 5722 5718 5715 5713 5714 5716 5715 5714 5713 5714 5715 5709 5708 5704 5700 5699 5697 5695 5695 5695 5693 5693 5692 5689 5688 5686 5685 5684
5749 5747 5746 5743 5741 5739 5737 5735 5733 5731 5729 5726 5724 5722 5720 5718 5713 5710 5708 5709 5710 5710 5709 5708 5707 5707 5705 5702 5700 5699 5697 5696 5692 5691 5691 5690 5689 5687 5684 5682 5681 5680 5680
5742 5740 5739 5737 5734 5732 5730 5728 5726 5725 5723 5721 5719 5717 5715 5713 5708 5705 5702 5705 5705 5705 5705 5704 5702 5701 5697 5693 5693 5693 5692 5692 5689 5686 5683 5682 5679 5677 5676 5676 5675 5674 5674
5734 5733 5732 5730 5727 5725 5723 5722 5721 5719 5717 5717 5714 5713 5711 5709 5704 5700 5697 5701 5701 5701 5700 5699 5695 5693 5690 5686 5687 5687 5686 5686 5686 5683 5678 5675 5674 5672 5668 5668 5669 5669 5669
5727 5725 5724 5722 5720 5719 5717 5715 5713 5712 5711 5709 5708 5707 5706 5704 5700 5695 5692 5695 5696 5695 5695 5694 5693 5686 5682 5679 5678 5680 5680 5678 5679 5677 5676 5674 5672 5669 5667 5664 5663 5662 5662
5718 5716 5714 5713 5713 5712 5709 5707 5706 5704 5703 5702 5701 5700 5701 5699 5695 5691 5687 5685 5685 5687 5687 5688 5686 5678 5675 5672 5672 5671 5669 5668 5673 5672 5670 5668 5667 5665 5663 5660 5656 5655 5653
5710 5707 5706 5705 5704 5703 5701 5700 5698 5697 5699 5699 5697 5695 5695 5694 5691 5685 5680 5678 5676 5677 5680 5677 5674 5669 5667 5666 5664 5662 5661 5664 5666 5665 5664 5662 5661 5659 5656 5652 5649 5647 5644
5701 5699 5698 5697 5695 5694 5693 5693 5692 5692 5691 5691 5689 5688 5688 5687 5685 5682 5679 5674 5669 5669 5670 5668 5664 5662 5660 5660 5659 5657 5657 5658 5658 5657 5656 5655 5652 5650 5647 5645 5643 5641 5639
5691 5690 5690 5689 5688 5685 5685 5684 5685 5684 5682 5679 5680 5679 5679 5678 5675 5671 5670 5669 5667 5665 5662 5661 5661 5660 5658 5657 5656 5655 5652 5650 5648 5648 5647 5645 5643 5642 5640 5638 5636 5634 5632
5682 5682 5683 5683 5682 5681 5679 5678 5674 5673 5670 5667 5666 5665 5667 5665 5662 5660 5658 5657 5654 5652 5651 5654 5653 5653 5652 5651 5649 5647 5645 5643 5641 5640 5638 5637 5635 5633 5632 5631 5629 5626 5624
5673 5673 5674 5674 5674 5673 5672 5670 5668 5665 5661 5659 5657 5655 5653 5653 5652 5650 5648 5646 5644 5642 5644 5647 5647 5646 5646 5645 5643 5641 5639 5636 5633 5632 5630 5628 5627 5625 5623 5622 5620 5618 5616
5667 5666 5665 5665 5665 5664 5664 5662 5661 5660 5659 5659 5654 5648 5646 5644 5642 5640 5639 5637 5640 5638 5641 5642 5641 5640 5639 5637 5636 5634 5631 5629 5626 5624 5622 5621 5619 5617 5615 5614 5612 5610 5608
5660 5659 5657 5657 5657 5657 5656 5655 5654 5653 5653 5653 5652 5647 5640 5637 5633 5631 5629 5633 5638 5638 5637 5636 5635 5634 5632 5629 5627 5624 5622 5620 5618 5616 5616 5613 5612 5610 5608 5606 5604 5599 5598
5652 5649 5647 5648 5649 5649 5648 5647 5647 5647 5646 5645 5644 5643 5639 5634 5632 5629 5626 5628 5630 5631 5631 5631 5629 5626 5624 5621 5618 5615 5613 5612 5610 5609 5608 5607 5605 5603 5601 5598 5596 5595 5593
5645 5643 5639 5640 5641 5640 5639 5639 5639 5639 5639 5638 5637 5635 5629 5629 5628 5627 5625 5624 5623 5623 5623 5622 5621 5619 5616 5613 5610 5608 5606 5604 5603 5602 5600 5598 5598 5596 5594 5592 5590 5588 5585
5637 5636 5634 5633 5632 5631 5631 5631 5631 5631 5631 5630 5629 5627 5621 5622 5623 5621 5620 5618 5617 5616 5615 5614 5613 5612 5610 5607 5603 5601 5598 5597 5595 5593 5591 5591 5589 5588 5587 5585 5583 5581 5578
5629 5628 5627 5625 5624 5621 5622 5623 5622 5622 5622 5622 5620 5618 5616 5614 5613 5612 5611 5610 5609 5608 5606 5605 5604 5603 5600 5598 5596 5593 5591 5589 5587 5585 5582 5582 5582 5581 5580 5578 5575 5573 5572
5622 5621 5619 5618 5617 5616 5615 5614 5612 5612 5612 5611 5610 5608 5606 5604 5603 5602 5601 5600 5599 5598 5596 5595 5594 5592 5590 5588 5587 5585 5582 5579 5577 5576 5574 5573 5573 5572 5571 5570 5568 5567 5565
5615 5614 5612 5610 5609 5608 5606 5605 5604 5603 5602 5601 5599 5598 5596 5594 5593 5592 5591 5590 5588 5587 5586 5585 5583 5582 5580 5578 5576 5574 5570 5567 5566 5565 5565 5565 5565 5563 5563 5562 5561 5560 5558
5609 5607 5605 5603 5602 5600 5599 5597 5596 5595 5593 5591 5590 5588 5587 5586 5584 5583 5582 5581 5579 5577 5576 5575 5573 5572 5570 5568 5565 5562 5559 5557 5555 5554 5554 5556 5556 5556 5554 5553 5552 5552 5550